Time,TemperatureF,DewpointF,PressureIn,WindDirection,WindDirectionDegrees,WindSpeedMPH,WindSpeedGustMPH,Humidity,HourlyPrecipIn,Conditions,Clouds,dailyrainin,SoftwareType,DateUTC
2013-04-10 00:02:00,47.8,43.6,30.24,SSW,202,0.0,0.0,85,0.00,,---,0.00,VWS V14.01,2013-04-10 07:02:00,
2013-04-10 00:08:00,47.8,43.6,30.27,SSW,202,0.0,0.0,85,0.00,,---,0.00,VWS V14.01,2013-04-10 07:08:00,
2013-04-10 00:13:00,48.0,44.0,30.27,SSW,202,0.0,0.0,86,0.00,,---,0.00,VWS V14.01,2013-04-10 07:13:00,
2013-04-10 00:18:00,48.0,44.0,30.27,SSW,202,0.0,0.0,86,0.00,,---,0.00,VWS V14.01,2013-04-10 07:18:00,
2013-04-10 00:23:00,48.0,44.0,30.24,SSW,202,0.0,0.0,86,0.00,,---,0.00,VWS V14.01,2013-04-10 07:23:00,
2013-04-10 00:28:00,48.0,44.0,30.24,SSW,202,0.0,0.0,86,0.00,,---,0.00,VWS V14.01,2013-04-10 07:28:00,
2013-04-10 00:33:00,48.2,43.9,30.24,SSW,202,0.0,0.0,85,0.00,,---,0.00,VWS V14.01,2013-04-10 07:33:00,
2013-04-10 00:38:00,48.2,43.9,30.27,SSW,202,0.0,0.0,85,0.00,,---,0.00,VWS V14.01,2013-04-10 07:38:00,
2013-04-10 00:43:00,48.2,44.2,30.27,SSW,202,0.0,0.0,86,0.00,,---,0.00,VWS V14.01,2013-04-10 07:43:00,
2013-04-10 00:48:00,48.2,44.2,30.27,SSW,202,0.0,0.0,86,0.00,,---,0.00,VWS V14.01,2013-04-10 07:48:00,
2013-04-10 00:53:00,48.2,44.2,30.24,SSW,202,0.0,0.0,86,0.00,,---,0.00,VWS V14.01,2013-04-10 07:53:00,
2013-04-10 00:58:00,48.2,44.2,30.24,SSW,202,0.0,0.0,86,0.00,,---,0.00,VWS V14.01,2013-04-10 07:58:00,
2013-04-10 01:03:00,48.4,44.4,30.24,SSW,202,0.0,0.0,86,0.00,,---,0.00,VWS V14.01,2013-04-10 08:03:00,
2013-04-10 01:09:00,48.4,44.4,30.27,SSW,202,0.0,0.0,86,0.00,,---,0.00,VWS V14.01,2013-04-10 08:09:00,
2013-04-10 01:14:00,48.4,44.4,30.27,SSW,202,0.0,0.0,86,0.00,,---,0.00,VWS V14.01,2013-04-10 08:14:00,
2013-04-10 01:19:00,48.4,44.4,30.27,WSW,248,0.0,0.0,86,0.00,,---,0.00,VWS V14.01,2013-04-10 08:19:00,
2013-04-10 01:24:00,48.4,44.4,30.27,WSW,248,0.0,0.0,86,0.00,,---,0.00,VWS V14.01,2013-04-10 08:24:00,
2013-04-10 01:29:00,48.4,44.7,30.27,WSW,248,0.0,0.0,87,0.00,,---,0.00,VWS V14.01,2013-04-10 08:29:00,
2013-04-10 01:35:00,48.4,44.7,30.27,WSW,248,0.0,0.0,87,0.00,,---,0.00,VWS V14.01,2013-04-10 08:35:00,
2013-04-10 01:40:00,48.4,44.7,30.27,WSW,248,0.0,0.0,87,0.00,,---,0.00,VWS V14.01,2013-04-10 08:40:00,
2013-04-10 01:45:00,48.4,44.7,30.27,WSW,248,0.0,0.0,87,0.00,,---,0.00,VWS V14.01,2013-04-10 08:45:00,
2013-04-10 01:50:00,48.4,44.7,30.27,WSW,248,0.0,0.0,87,0.00,,---,0.00,VWS V14.01,2013-04-10 08:50:00,
2013-04-10 01:55:00,48.4,44.7,30.27,WSW,248,0.0,0.0,87,0.00,,---,0.00,VWS V14.01,2013-04-10 08:55:00,
2013-04-10 02:00:00,48.4,44.7,30.27,WSW,248,0.0,0.0,87,0.00,,---,0.00,VWS V14.01,2013-04-10 09:00:00,
2013-04-10 02:16:00,48.4,44.7,30.27,North,0,0.0,0.0,87,0.00,,---,0.00,VWS V14.01,2013-04-10 09:16:00,
2013-04-10 02:21:00,48.4,44.7,30.24,North,0,0.0,0.0,87,0.00,,---,0.00,VWS V14.01,2013-04-10 09:21:00,
2013-04-10 02:26:00,48.4,45.0,30.24,WNW,292,0.0,0.0,88,0.00,,---,0.00,VWS V14.01,2013-04-10 09:26:00,
2013-04-10 02:31:00,48.4,45.0,30.24,WNW,292,0.0,0.0,88,0.00,,---,0.00,VWS V14.01,2013-04-10 09:31:00,
2013-04-10 02:36:00,48.4,45.0,30.24,NNW,338,0.0,0.0,88,0.00,,---,0.00,VWS V14.01,2013-04-10 09:36:00,
2013-04-10 02:41:00,48.4,45.3,30.24,NNW,338,0.0,0.0,89,0.00,,---,0.00,VWS V14.01,2013-04-10 09:41:00,
2013-04-10 02:47:00,48.4,45.3,30.24,NNW,338,0.0,0.0,89,0.00,,---,0.00,VWS V14.01,2013-04-10 09:47:00,
2013-04-10 02:52:00,48.4,45.3,30.21,NNW,338,0.0,0.0,89,0.00,,---,0.00,VWS V14.01,2013-04-10 09:52:00,
2013-04-10 02:57:00,48.4,45.3,30.21,West,270,0.0,0.0,89,0.00,,---,0.00,VWS V14.01,2013-04-10 09:57:00,
2013-04-10 03:02:00,48.4,45.3,30.21,NW,315,0.0,0.0,89,0.00,,---,0.00,VWS V14.01,2013-04-10 10:02:00,
2013-04-10 03:07:00,48.4,45.3,30.24,NNE,22,0.0,0.0,89,0.00,,---,0.00,VWS V14.01,2013-04-10 10:07:00,
2013-04-10 03:13:00,48.4,45.6,30.24,NW,315,0.0,0.0,90,0.00,,---,0.00,VWS V14.01,2013-04-10 10:13:00,
2013-04-10 03:18:00,48.2,45.4,30.24,NNW,338,0.0,0.0,90,0.00,,---,0.00,VWS V14.01,2013-04-10 10:18:00,
2013-04-10 03:23:00,48.2,45.4,30.24,NNW,338,0.0,0.0,90,0.00,,---,0.00,VWS V14.01,2013-04-10 10:23:00,
2013-04-10 03:28:00,48.2,45.4,30.24,West,270,0.0,0.0,90,0.00,,---,0.00,VWS V14.01,2013-04-10 10:28:00,
2013-04-10 03:33:00,48.2,45.4,30.24,West,270,0.0,0.0,90,0.00,,---,0.00,VWS V14.01,2013-04-10 10:33:00,
2013-04-10 03:38:00,48.4,45.6,30.21,West,270,0.0,0.0,90,0.00,,---,0.00,VWS V14.01,2013-04-10 10:38:00,
2013-04-10 03:43:00,48.4,45.6,30.21,West,270,0.0,0.0,90,0.00,,---,0.00,VWS V14.01,2013-04-10 10:43:00,
2013-04-10 03:48:00,48.4,45.6,30.21,West,270,0.0,0.0,90,0.00,,---,0.00,VWS V14.01,2013-04-10 10:48:00,
2013-04-10 03:53:00,48.4,45.9,30.21,WSW,248,0.0,0.0,91,0.00,,---,0.00,VWS V14.01,2013-04-10 10:53:00,
2013-04-10 03:59:00,48.6,46.1,30.21,WSW,248,0.0,0.0,91,0.00,,---,0.00,VWS V14.01,2013-04-10 10:59:00,
2013-04-10 04:04:00,48.7,46.2,30.21,West,270,0.0,0.0,91,0.00,,---,0.00,VWS V14.01,2013-04-10 11:04:00,
2013-04-10 04:09:00,48.7,45.9,30.21,West,270,0.0,0.0,90,0.00,,---,0.00,VWS V14.01,2013-04-10 11:09:00,
2013-04-10 04:14:00,48.7,45.9,30.21,West,270,0.0,0.0,90,0.00,,---,0.00,VWS V14.01,2013-04-10 11:14:00,
2013-04-10 04:19:00,48.9,46.1,30.21,West,270,0.0,0.0,90,0.00,,---,0.00,VWS V14.01,2013-04-10 11:19:00,
2013-04-10 04:24:00,48.9,46.1,30.18,West,270,0.0,0.0,90,0.00,,---,0.00,VWS V14.01,2013-04-10 11:24:00,
2013-04-10 04:29:00,48.9,46.1,30.18,West,270,0.0,0.0,90,0.00,,---,0.00,VWS V14.01,2013-04-10 11:29:00,
2013-04-10 04:34:00,49.1,46.3,30.18,West,270,0.0,0.0,90,0.00,,---,0.00,VWS V14.01,2013-04-10 11:34:00,
2013-04-10 04:39:00,49.1,46.3,30.21,SSW,202,0.0,0.0,90,0.00,,---,0.00,VWS V14.01,2013-04-10 11:39:00,
2013-04-10 04:44:00,49.3,46.2,30.21,SSW,202,0.0,0.0,89,0.00,,---,0.00,VWS V14.01,2013-04-10 11:44:00,
2013-04-10 04:49:00,49.3,46.2,30.21,SW,225,0.0,0.0,89,0.00,,---,0.00,VWS V14.01,2013-04-10 11:49:00,
2013-04-10 04:54:00,49.3,46.2,30.21,SSW,202,0.0,0.0,89,0.00,,---,0.00,VWS V14.01,2013-04-10 11:54:00,
2013-04-10 04:59:00,49.3,46.2,30.21,SW,225,0.0,0.0,89,0.00,,---,0.00,VWS V14.01,2013-04-10 11:59:00,
2013-04-10 05:05:00,49.6,46.5,30.21,WSW,248,0.0,2.2,89,0.00,,---,0.00,VWS V14.01,2013-04-10 12:05:00,
2013-04-10 05:10:00,49.6,46.2,30.21,SW,225,0.0,0.0,88,0.00,,---,0.00,VWS V14.01,2013-04-10 12:10:00,
2013-04-10 05:15:00,49.8,46.1,30.21,WSW,248,0.0,0.0,87,0.00,,---,0.00,VWS V14.01,2013-04-10 12:15:00,
2013-04-10 05:20:00,50.0,46.0,30.21,West,270,0.0,0.9,86,0.00,,---,0.00,VWS V14.01,2013-04-10 12:20:00,
2013-04-10 05:25:00,50.0,46.0,30.18,NW,315,0.0,0.0,86,0.00,,---,0.00,VWS V14.01,2013-04-10 12:25:00,
2013-04-10 05:30:00,50.2,46.2,30.18,NNW,338,0.0,0.0,86,0.00,,---,0.00,VWS V14.01,2013-04-10 12:30:00,
2013-04-10 05:35:00,50.2,46.2,30.18,West,270,0.0,0.0,86,0.00,,---,0.00,VWS V14.01,2013-04-10 12:35:00,
2013-04-10 05:40:00,50.4,46.3,30.18,ENE,68,1.3,1.6,86,0.00,,---,0.00,VWS V14.01,2013-04-10 12:40:00,
2013-04-10 05:45:00,50.5,46.2,30.18,WNW,292,0.0,0.0,85,0.00,,---,0.00,VWS V14.01,2013-04-10 12:45:00,
2013-04-10 05:50:00,50.5,46.2,30.18,SE,135,0.9,3.8,85,0.00,,---,0.00,VWS V14.01,2013-04-10 12:50:00,
2013-04-10 05:56:00,50.5,46.2,30.18,WSW,248,0.0,0.0,85,0.00,,---,0.00,VWS V14.01,2013-04-10 12:56:00,
2013-04-10 06:01:00,50.2,45.5,30.18,West,270,0.0,0.0,84,0.00,,---,0.00,VWS V14.01,2013-04-10 13:01:00,
2013-04-10 06:06:00,50.0,45.7,30.18,SSW,202,0.0,0.0,85,0.00,,---,0.00,VWS V14.01,2013-04-10 13:06:00,
2013-04-10 06:11:00,49.8,45.5,30.18,West,270,0.0,0.0,85,0.00,,---,0.00,VWS V14.01,2013-04-10 13:11:00,
2013-04-10 06:16:00,49.3,45.0,30.18,WNW,292,0.0,0.0,85,0.00,,---,0.00,VWS V14.01,2013-04-10 13:16:00,
2013-04-10 06:21:00,49.1,45.1,30.15,West,270,0.0,1.6,86,0.00,,---,0.00,VWS V14.01,2013-04-10 13:21:00,
2013-04-10 06:26:00,49.1,45.1,30.15,WNW,292,0.0,0.0,86,0.00,,---,0.00,VWS V14.01,2013-04-10 13:26:00,
2013-04-10 06:31:00,49.3,45.6,30.15,West,270,0.0,0.0,87,0.00,,---,0.00,VWS V14.01,2013-04-10 13:31:00,
2013-04-10 06:36:00,49.5,46.1,30.15,West,270,0.0,0.0,88,0.00,,---,0.00,VWS V14.01,2013-04-10 13:36:00,
2013-04-10 06:41:00,49.3,45.9,30.15,South,180,0.0,0.0,88,0.00,,---,0.00,VWS V14.01,2013-04-10 13:41:00,
2013-04-10 06:46:00,49.3,45.9,30.15,WNW,292,0.0,0.0,88,0.00,,---,0.00,VWS V14.01,2013-04-10 13:46:00,
2013-04-10 06:51:00,49.5,46.4,30.15,WSW,248,0.0,0.0,89,0.00,,---,0.00,VWS V14.01,2013-04-10 13:51:00,
2013-04-10 06:56:00,49.8,46.7,30.15,SSW,202,0.0,0.0,89,0.00,,---,0.00,VWS V14.01,2013-04-10 13:56:00,
2013-04-10 07:01:00,50.0,46.9,30.15,SSW,202,0.0,2.9,89,0.00,,---,0.00,VWS V14.01,2013-04-10 14:01:00,
2013-04-10 07:06:00,50.2,47.1,30.15,SW,225,0.0,3.8,89,0.00,,---,0.00,VWS V14.01,2013-04-10 14:06:00,
2013-04-10 07:11:00,50.5,47.4,30.15,South,180,0.0,0.0,89,0.00,,---,0.00,VWS V14.01,2013-04-10 14:11:00,
2013-04-10 07:16:00,50.7,47.6,30.15,North,0,0.0,0.9,89,0.00,,---,0.00,VWS V14.01,2013-04-10 14:16:00,
2013-04-10 07:21:00,50.9,47.5,30.15,South,180,0.0,1.1,88,0.00,,---,0.00,VWS V14.01,2013-04-10 14:21:00,
2013-04-10 07:26:00,51.3,47.8,30.15,WSW,248,0.0,0.9,88,0.00,,---,0.00,VWS V14.01,2013-04-10 14:26:00,
2013-04-10 07:31:00,51.4,47.7,30.15,West,270,0.0,0.0,87,0.00,,---,0.00,VWS V14.01,2013-04-10 14:31:00,
2013-04-10 07:36:00,51.4,47.4,30.15,SSE,158,2.0,2.9,86,0.00,,---,0.00,VWS V14.01,2013-04-10 14:36:00,
2013-04-10 07:41:00,51.4,47.4,30.15,SW,225,2.5,2.5,86,0.00,,---,0.00,VWS V14.01,2013-04-10 14:41:00,
2013-04-10 07:46:00,51.6,47.6,30.15,South,180,3.6,3.6,86,0.00,,---,0.00,VWS V14.01,2013-04-10 14:46:00,
2013-04-10 07:51:00,51.6,47.6,30.12,ESE,112,0.0,2.0,86,0.00,,---,0.00,VWS V14.01,2013-04-10 14:51:00,
2013-04-10 07:56:00,51.6,47.3,30.12,South,180,1.1,2.5,85,0.00,,---,0.00,VWS V14.01,2013-04-10 14:56:00,
2013-04-10 08:01:00,51.8,47.4,30.12,West,270,0.0,0.0,85,0.00,,---,0.00,VWS V14.01,2013-04-10 15:01:00,
2013-04-10 08:06:00,51.8,47.4,30.15,SW,225,1.6,4.0,85,0.00,,---,0.00,VWS V14.01,2013-04-10 15:06:00,
2013-04-10 08:11:00,51.8,47.4,30.15,SSE,158,1.6,2.5,85,0.00,,---,0.00,VWS V14.01,2013-04-10 15:11:00,
2013-04-10 08:16:00,51.8,47.4,30.15,West,270,1.3,2.9,85,0.00,,---,0.00,VWS V14.01,2013-04-10 15:16:00,
2013-04-10 08:21:00,52.0,47.9,30.12,NE,45,2.0,2.9,86,0.00,,---,0.00,VWS V14.01,2013-04-10 15:21:00,
2013-04-10 08:26:00,52.2,48.1,30.12,West,270,0.0,1.6,86,0.00,,---,0.00,VWS V14.01,2013-04-10 15:26:00,
2013-04-10 08:31:00,52.3,48.6,30.12,SSE,158,4.9,4.9,87,0.00,,---,0.00,VWS V14.01,2013-04-10 15:31:00,
2013-04-10 08:36:00,52.3,48.6,30.12,SW,225,0.0,3.4,87,0.00,,---,0.00,VWS V14.01,2013-04-10 15:36:00,
2013-04-10 08:41:00,52.3,48.6,30.12,SW,225,1.1,2.5,87,0.00,,---,0.00,VWS V14.01,2013-04-10 15:41:00,
2013-04-10 08:46:00,52.2,48.4,30.12,SSW,202,0.9,2.9,87,0.00,,---,0.00,VWS V14.01,2013-04-10 15:46:00,
2013-04-10 08:51:00,52.2,48.4,30.12,SW,225,2.5,4.9,87,0.00,,---,0.00,VWS V14.01,2013-04-10 15:51:00,
2013-04-10 08:56:00,52.2,48.4,30.12,SSW,202,3.8,3.8,87,0.00,,---,0.00,VWS V14.01,2013-04-10 15:56:00,
2013-04-10 09:01:00,52.2,48.7,30.12,WSW,248,1.3,3.4,88,0.00,,---,0.00,VWS V14.01,2013-04-10 16:01:00,
2013-04-10 09:06:00,52.0,48.8,30.12,SSW,202,1.3,2.0,89,0.00,,---,0.00,VWS V14.01,2013-04-10 16:06:00,
2013-04-10 09:11:00,51.8,49.0,30.12,South,180,0.0,2.0,90,0.00,,---,0.00,VWS V14.01,2013-04-10 16:11:00,
2013-04-10 09:16:00,51.8,49.3,30.12,South,180,2.0,2.5,91,0.00,,---,0.00,VWS V14.01,2013-04-10 16:16:00,
2013-04-10 09:21:00,51.6,49.4,30.12,WSW,248,0.0,2.0,92,0.05,,---,0.05,VWS V14.01,2013-04-10 16:21:00,
2013-04-10 09:26:00,51.6,49.7,30.12,South,180,3.4,3.4,93,0.05,,---,0.05,VWS V14.01,2013-04-10 16:26:00,
2013-04-10 09:31:00,51.6,50.0,30.12,West,270,1.3,3.1,94,0.05,,---,0.05,VWS V14.01,2013-04-10 16:31:00,
2013-04-10 09:36:00,51.8,50.1,30.12,SW,225,3.6,3.6,94,0.05,,---,0.05,VWS V14.01,2013-04-10 16:36:00,
2013-04-10 09:41:00,51.8,50.4,30.12,SSW,202,0.9,0.9,95,0.09,,---,0.09,VWS V14.01,2013-04-10 16:41:00,
2013-04-10 09:46:00,52.0,50.6,30.12,WSW,248,0.0,3.4,95,0.09,,---,0.09,VWS V14.01,2013-04-10 16:46:00,
2013-04-10 09:51:00,52.0,50.6,30.12,NNW,338,0.0,1.1,95,0.09,,---,0.09,VWS V14.01,2013-04-10 16:51:00,
2013-04-10 09:56:00,52.0,50.6,30.12,West,270,0.0,2.5,95,0.09,,---,0.09,VWS V14.01,2013-04-10 16:56:00,
2013-04-10 10:01:00,51.8,50.4,30.12,WNW,292,0.0,0.9,95,0.09,,---,0.09,VWS V14.01,2013-04-10 17:01:00,
2013-04-10 10:06:00,51.8,50.4,30.15,WNW,292,0.0,0.0,95,0.09,,---,0.09,VWS V14.01,2013-04-10 17:06:00,
2013-04-10 10:11:00,52.2,50.8,30.15,WNW,292,0.0,0.0,95,0.09,,---,0.09,VWS V14.01,2013-04-10 17:11:00,
2013-04-10 10:16:00,52.3,51.2,30.15,WNW,292,0.0,0.0,96,0.09,,---,0.09,VWS V14.01,2013-04-10 17:16:00,
2013-04-10 10:21:00,52.5,51.4,30.15,NW,315,0.0,0.0,96,0.04,,---,0.09,VWS V14.01,2013-04-10 17:21:00,
2013-04-10 10:26:00,52.9,51.8,30.15,West,270,0.0,0.0,96,0.04,,---,0.09,VWS V14.01,2013-04-10 17:26:00,
2013-04-10 10:31:00,52.9,51.5,30.15,WNW,292,0.0,0.0,95,0.04,,---,0.09,VWS V14.01,2013-04-10 17:31:00,
2013-04-10 10:36:00,52.9,51.5,30.15,North,0,2.2,2.5,95,0.04,,---,0.09,VWS V14.01,2013-04-10 17:36:00,
2013-04-10 10:41:00,53.1,51.7,30.15,ENE,68,0.0,1.3,95,0.00,,---,0.09,VWS V14.01,2013-04-10 17:41:00,
2013-04-10 10:46:00,53.4,52.3,30.15,SSW,202,0.0,0.0,96,0.00,,---,0.09,VWS V14.01,2013-04-10 17:46:00,
2013-04-10 10:51:00,53.6,52.2,30.15,NE,45,0.0,2.5,95,0.00,,---,0.09,VWS V14.01,2013-04-10 17:51:00,
2013-04-10 10:56:00,54.0,52.6,30.15,WSW,248,0.0,3.1,95,0.04,,---,0.13,VWS V14.01,2013-04-10 17:56:00,
2013-04-10 11:01:00,54.9,53.5,30.15,WNW,292,0.0,2.9,95,0.04,,---,0.13,VWS V14.01,2013-04-10 18:01:00,
2013-04-10 11:06:00,55.4,53.7,30.18,West,270,1.1,5.6,94,0.04,,---,0.13,VWS V14.01,2013-04-10 18:06:00,
2013-04-10 11:11:00,56.3,54.0,30.18,West,270,0.0,0.0,92,0.04,,---,0.13,VWS V14.01,2013-04-10 18:11:00,
2013-04-10 11:16:00,55.9,52.1,30.18,North,0,0.0,3.8,87,0.04,,---,0.13,VWS V14.01,2013-04-10 18:16:00,
2013-04-10 11:21:00,55.9,52.1,30.18,WNW,292,0.0,2.5,87,0.04,,---,0.13,VWS V14.01,2013-04-10 18:21:00,
2013-04-10 11:26:00,55.8,51.0,30.18,West,270,3.1,3.8,84,0.04,,---,0.13,VWS V14.01,2013-04-10 18:26:00,
2013-04-10 11:31:00,55.2,50.2,30.18,ENE,68,1.3,4.0,83,0.04,,---,0.13,VWS V14.01,2013-04-10 18:31:00,
2013-04-10 11:36:00,55.4,50.7,30.21,NW,315,0.0,0.9,84,0.04,,---,0.13,VWS V14.01,2013-04-10 18:36:00,
2013-04-10 11:41:00,55.6,51.2,30.21,NNE,22,2.9,3.6,85,0.04,,---,0.13,VWS V14.01,2013-04-10 18:41:00,
2013-04-10 11:46:00,55.8,51.0,30.21,West,270,2.7,2.7,84,0.04,,---,0.13,VWS V14.01,2013-04-10 18:46:00,
2013-04-10 11:51:00,55.8,50.7,30.18,WNW,292,0.0,2.5,83,0.04,,---,0.13,VWS V14.01,2013-04-10 18:51:00,
2013-04-10 11:56:00,57.0,51.9,30.18,NW,315,1.1,2.0,83,0.00,,---,0.13,VWS V14.01,2013-04-10 18:56:00,
2013-04-10 12:01:00,57.2,51.4,30.18,South,180,1.3,1.3,81,0.00,,---,0.13,VWS V14.01,2013-04-10 19:01:00,
2013-04-10 12:06:00,57.0,50.9,30.21,WNW,292,0.0,0.9,80,0.00,,---,0.13,VWS V14.01,2013-04-10 19:06:00,
2013-04-10 12:11:00,55.9,48.1,30.21,West,270,3.4,3.4,75,0.00,,---,0.13,VWS V14.01,2013-04-10 19:11:00,
2013-04-10 12:16:00,55.4,47.6,30.21,NNE,22,0.0,0.9,75,0.00,,---,0.13,VWS V14.01,2013-04-10 19:16:00,
2013-04-10 12:21:00,55.0,46.5,30.21,SSW,202,0.0,2.5,73,0.00,,---,0.13,VWS V14.01,2013-04-10 19:21:00,
2013-04-10 12:26:00,54.7,45.8,30.21,West,270,2.0,3.8,72,0.00,,---,0.13,VWS V14.01,2013-04-10 19:26:00,
2013-04-10 12:31:00,54.5,46.4,30.21,WNW,292,0.0,0.0,74,0.00,,---,0.13,VWS V14.01,2013-04-10 19:31:00,
2013-04-10 12:36:00,54.0,45.5,30.24,NNW,338,0.0,3.1,73,0.00,,---,0.13,VWS V14.01,2013-04-10 19:36:00,
2013-04-10 12:41:00,53.1,44.7,30.24,WNW,292,0.0,4.9,73,0.00,,---,0.13,VWS V14.01,2013-04-10 19:41:00,
2013-04-10 12:46:00,53.2,45.5,30.24,NW,315,0.0,1.6,75,0.00,,---,0.13,VWS V14.01,2013-04-10 19:46:00,
2013-04-10 12:51:00,54.3,46.6,30.24,NE,45,0.0,1.1,75,0.00,,---,0.13,VWS V14.01,2013-04-10 19:51:00,
2013-04-10 12:56:00,55.2,46.7,30.24,SSE,158,6.3,6.3,73,0.00,,---,0.13,VWS V14.01,2013-04-10 19:56:00,
2013-04-10 13:01:00,54.5,45.3,30.24,North,0,0.0,2.2,71,0.00,,---,0.13,VWS V14.01,2013-04-10 20:01:00,
2013-04-10 13:06:00,53.8,44.6,30.24,WSW,248,2.9,2.9,71,0.00,,---,0.13,VWS V14.01,2013-04-10 20:06:00,
2013-04-10 13:11:00,53.6,44.1,30.24,NW,315,1.3,2.9,70,0.00,,---,0.13,VWS V14.01,2013-04-10 20:11:00,
2013-04-10 13:16:00,52.9,43.0,30.24,SW,225,2.2,4.3,69,0.00,,---,0.13,VWS V14.01,2013-04-10 20:16:00,
2013-04-10 13:21:00,53.2,44.1,30.27,West,270,3.6,3.6,71,0.00,,---,0.13,VWS V14.01,2013-04-10 20:21:00,
2013-04-10 13:26:00,53.2,43.7,30.27,NNW,338,0.0,1.6,70,0.00,,---,0.13,VWS V14.01,2013-04-10 20:26:00,
2013-04-10 13:31:00,53.2,43.7,30.27,SSW,202,2.0,5.8,70,0.00,,---,0.13,VWS V14.01,2013-04-10 20:31:00,
2013-04-10 13:36:00,53.1,43.2,30.27,NW,315,0.0,1.3,69,0.00,,---,0.13,VWS V14.01,2013-04-10 20:36:00,
2013-04-10 13:41:00,52.7,42.8,30.27,WNW,292,1.3,1.6,69,0.00,,---,0.13,VWS V14.01,2013-04-10 20:41:00,
2013-04-10 13:46:00,53.2,44.1,30.27,West,270,0.0,0.9,71,0.00,,---,0.13,VWS V14.01,2013-04-10 20:46:00,
2013-04-10 13:51:00,53.8,45.0,30.27,WNW,292,2.0,2.7,72,0.00,,---,0.13,VWS V14.01,2013-04-10 20:51:00,
2013-04-10 13:56:00,55.0,46.2,30.27,WNW,292,0.0,1.1,72,0.00,,---,0.13,VWS V14.01,2013-04-10 20:56:00,
2013-04-10 14:01:00,54.5,44.5,30.27,West,270,1.1,1.6,69,0.00,,---,0.13,VWS V14.01,2013-04-10 21:01:00,
2013-04-10 14:07:00,54.5,44.9,30.30,WNW,292,0.0,0.9,70,0.00,,---,0.13,VWS V14.01,2013-04-10 21:07:00,
2013-04-10 14:12:00,56.1,46.9,30.30,West,270,0.0,0.0,71,0.00,,---,0.13,VWS V14.01,2013-04-10 21:12:00,
2013-04-10 14:17:00,57.0,47.0,30.30,North,0,0.0,0.0,69,0.00,,---,0.13,VWS V14.01,2013-04-10 21:17:00,
2013-04-10 14:22:00,56.7,45.0,30.30,West,270,3.1,3.4,65,0.00,,---,0.13,VWS V14.01,2013-04-10 21:22:00,
2013-04-10 14:27:00,56.1,44.9,30.30,West,270,0.0,0.0,66,0.00,,---,0.13,VWS V14.01,2013-04-10 21:27:00,
2013-04-10 14:33:00,55.4,43.4,30.30,WNW,292,1.6,2.7,64,0.00,,---,0.13,VWS V14.01,2013-04-10 21:33:00,
2013-04-10 14:38:00,54.5,42.6,30.33,WNW,292,0.0,4.0,64,0.00,,---,0.13,VWS V14.01,2013-04-10 21:38:00,
2013-04-10 14:43:00,54.9,44.1,30.33,WSW,248,0.0,2.5,67,0.00,,---,0.13,VWS V14.01,2013-04-10 21:43:00,
2013-04-10 14:48:00,55.8,45.4,30.33,NW,315,0.0,0.0,68,0.00,,---,0.13,VWS V14.01,2013-04-10 21:48:00,
2013-04-10 14:53:00,55.8,45.0,30.33,North,0,0.0,0.9,67,0.00,,---,0.13,VWS V14.01,2013-04-10 21:53:00,
2013-04-10 14:58:00,55.4,43.8,30.33,West,270,1.6,3.1,65,0.00,,---,0.13,VWS V14.01,2013-04-10 21:58:00,
2013-04-10 15:03:00,55.9,44.4,30.33,WSW,248,2.5,3.6,65,0.00,,---,0.13,VWS V14.01,2013-04-10 22:03:00,
2013-04-10 15:08:00,55.9,44.0,30.33,SW,225,3.4,3.4,64,0.00,,---,0.13,VWS V14.01,2013-04-10 22:08:00,
2013-04-10 15:13:00,55.6,43.6,30.33,NNW,338,0.0,2.9,64,0.00,,---,0.13,VWS V14.01,2013-04-10 22:13:00,
2013-04-10 15:18:00,55.6,43.2,30.33,WNW,292,2.9,3.1,63,0.00,,---,0.13,VWS V14.01,2013-04-10 22:18:00,
2013-04-10 15:23:00,55.4,41.8,30.33,NNE,22,2.2,2.7,60,0.00,,---,0.13,VWS V14.01,2013-04-10 22:23:00,
2013-04-10 15:28:00,55.0,42.7,30.33,West,270,0.0,4.9,63,0.00,,---,0.13,VWS V14.01,2013-04-10 22:28:00,
2013-04-10 15:33:00,55.4,43.4,30.33,WSW,248,0.0,1.1,64,0.00,,---,0.13,VWS V14.01,2013-04-10 22:33:00,
2013-04-10 15:38:00,56.5,44.9,30.30,NNW,338,3.1,3.1,65,0.00,,---,0.13,VWS V14.01,2013-04-10 22:38:00,
2013-04-10 15:43:00,56.5,43.6,30.30,WNW,292,0.0,2.5,62,0.00,,---,0.13,VWS V14.01,2013-04-10 22:43:00,
2013-04-10 15:48:00,57.2,44.7,30.30,WSW,248,0.0,1.3,63,0.00,,---,0.13,VWS V14.01,2013-04-10 22:48:00,
2013-04-10 15:53:00,57.6,45.1,30.33,WSW,248,0.0,1.1,63,0.00,,---,0.13,VWS V14.01,2013-04-10 22:53:00,
2013-04-10 15:58:00,56.8,44.0,30.33,NE,45,0.0,0.0,62,0.00,,---,0.13,VWS V14.01,2013-04-10 22:58:00,
2013-04-10 16:03:00,57.6,45.1,30.33,West,270,0.0,0.0,63,0.00,,---,0.13,VWS V14.01,2013-04-10 23:03:00,
2013-04-10 16:08:00,59.7,44.9,30.33,ENE,68,2.7,2.7,58,0.00,,---,0.13,VWS V14.01,2013-04-10 23:08:00,
2013-04-10 16:13:00,58.3,42.7,30.33,West,270,1.3,1.6,56,0.00,,---,0.13,VWS V14.01,2013-04-10 23:13:00,
2013-04-10 16:18:00,56.8,41.3,30.33,West,270,0.0,0.0,56,0.00,,---,0.13,VWS V14.01,2013-04-10 23:18:00,
2013-04-10 16:24:00,55.8,39.8,30.33,North,0,1.1,2.7,55,0.00,,---,0.13,VWS V14.01,2013-04-10 23:24:00,
2013-04-10 16:29:00,55.4,40.4,30.33,West,270,0.9,2.7,57,0.00,,---,0.13,VWS V14.01,2013-04-10 23:29:00,
2013-04-10 16:34:00,55.0,41.0,30.33,WNW,292,0.0,3.1,59,0.00,,---,0.13,VWS V14.01,2013-04-10 23:34:00,
2013-04-10 16:39:00,55.4,41.8,30.33,WSW,248,2.5,2.5,60,0.00,,---,0.13,VWS V14.01,2013-04-10 23:39:00,
2013-04-10 16:44:00,56.1,42.0,30.33,NNE,22,0.0,0.0,59,0.00,,---,0.13,VWS V14.01,2013-04-10 23:44:00,
2013-04-10 16:49:00,56.7,43.0,30.33,NW,315,0.0,0.0,60,0.00,,---,0.13,VWS V14.01,2013-04-10 23:49:00,
2013-04-10 16:54:00,56.7,42.5,30.33,WSW,248,2.2,2.2,59,0.00,,---,0.13,VWS V14.01,2013-04-10 23:54:00,
2013-04-10 16:59:00,56.8,41.8,30.33,SSW,202,6.0,6.0,57,0.00,,---,0.13,VWS V14.01,2013-04-10 23:59:00,
2013-04-10 17:04:00,56.5,41.0,30.33,WSW,248,2.0,3.1,56,0.00,,---,0.13,VWS V14.01,2013-04-11 00:04:00,
2013-04-10 17:09:00,55.9,40.9,30.33,NE,45,1.1,1.1,57,0.00,,---,0.13,VWS V14.01,2013-04-11 00:09:00,
2013-04-10 17:14:00,55.0,40.1,30.33,NNW,338,0.0,1.3,57,0.00,,---,0.13,VWS V14.01,2013-04-11 00:14:00,
2013-04-10 17:20:00,54.5,40.0,30.33,SW,225,0.0,0.0,58,0.00,,---,0.13,VWS V14.01,2013-04-11 00:20:00,
2013-04-10 17:25:00,55.2,41.6,30.30,West,270,2.0,2.0,60,0.00,,---,0.13,VWS V14.01,2013-04-11 00:25:00,
2013-04-10 17:30:00,56.1,41.6,30.30,West,270,0.0,2.7,58,0.00,,---,0.13,VWS V14.01,2013-04-11 00:30:00,
2013-04-10 17:35:00,55.2,38.9,30.30,WSW,248,0.0,4.7,54,0.00,,---,0.13,VWS V14.01,2013-04-11 00:35:00,
2013-04-10 17:40:00,54.7,39.3,30.33,WSW,248,1.1,2.2,56,0.00,,---,0.13,VWS V14.01,2013-04-11 00:40:00,
2013-04-10 17:45:00,54.3,38.0,30.33,West,270,1.6,2.2,54,0.00,,---,0.13,VWS V14.01,2013-04-11 00:45:00,
2013-04-10 17:50:00,54.3,38.5,30.33,WNW,292,2.0,2.0,55,0.00,,---,0.13,VWS V14.01,2013-04-11 00:50:00,
2013-04-10 17:55:00,54.0,38.6,30.33,North,0,0.0,0.0,56,0.00,,---,0.13,VWS V14.01,2013-04-11 00:55:00,
2013-04-10 18:00:00,53.4,38.1,30.33,NW,315,1.6,2.9,56,0.00,,---,0.13,VWS V14.01,2013-04-11 01:00:00,
2013-04-10 18:05:00,52.9,38.1,30.33,WNW,292,1.3,2.9,57,0.00,,---,0.13,VWS V14.01,2013-04-11 01:05:00,
2013-04-10 18:10:00,52.3,37.6,30.33,WNW,292,2.2,2.2,57,0.00,,---,0.13,VWS V14.01,2013-04-11 01:10:00,
2013-04-10 18:15:00,51.8,38.4,30.33,West,270,0.0,2.7,60,0.00,,---,0.13,VWS V14.01,2013-04-11 01:15:00,
2013-04-10 18:20:00,51.4,38.5,30.33,West,270,0.0,3.8,61,0.00,,---,0.13,VWS V14.01,2013-04-11 01:20:00,
2013-04-10 18:25:00,50.9,38.8,30.33,East,90,1.1,2.2,63,0.00,,---,0.13,VWS V14.01,2013-04-11 01:25:00,
2013-04-10 18:30:00,50.5,38.8,30.33,West,270,0.0,0.0,64,0.00,,---,0.13,VWS V14.01,2013-04-11 01:30:00,
2013-04-10 18:35:00,50.2,38.9,30.33,NE,45,0.0,1.3,65,0.00,,---,0.13,VWS V14.01,2013-04-11 01:35:00,
2013-04-10 18:40:00,50.2,39.7,30.33,WNW,292,1.1,1.1,67,0.00,,---,0.13,VWS V14.01,2013-04-11 01:40:00,
2013-04-10 18:45:00,50.2,40.0,30.33,WNW,292,0.0,0.0,68,0.00,,---,0.13,VWS V14.01,2013-04-11 01:45:00,
2013-04-10 18:51:00,50.0,39.9,30.33,NNW,338,0.0,0.0,68,0.00,,---,0.13,VWS V14.01,2013-04-11 01:51:00,
2013-04-10 18:56:00,50.0,39.9,30.33,WSW,248,0.0,0.0,68,0.00,,---,0.13,VWS V14.01,2013-04-11 01:56:00,
2013-04-10 19:01:00,49.6,39.9,30.33,West,270,1.3,2.9,69,0.00,,---,0.13,VWS V14.01,2013-04-11 02:01:00,
2013-04-10 19:06:00,49.5,39.3,30.33,West,270,4.3,4.3,68,0.00,,---,0.13,VWS V14.01,2013-04-11 02:06:00,
2013-04-10 19:11:00,48.9,38.5,30.33,WSW,248,2.0,2.0,67,0.00,,---,0.13,VWS V14.01,2013-04-11 02:11:00,
2013-04-10 19:16:00,48.2,37.8,30.33,WNW,292,0.0,1.1,67,0.00,,---,0.13,VWS V14.01,2013-04-11 02:16:00,
2013-04-10 19:21:00,47.8,38.2,30.33,West,270,1.1,1.1,69,0.00,,---,0.13,VWS V14.01,2013-04-11 02:21:00,
2013-04-10 19:27:00,47.7,38.4,30.33,West,270,0.9,1.6,70,0.00,,---,0.13,VWS V14.01,2013-04-11 02:27:00,
2013-04-10 19:32:00,47.7,38.7,30.33,West,270,0.0,3.1,71,0.00,,---,0.13,VWS V14.01,2013-04-11 02:32:00,
2013-04-10 19:37:00,47.5,38.6,30.33,North,0,0.0,0.0,71,0.00,,---,0.13,VWS V14.01,2013-04-11 02:37:00,
2013-04-10 19:42:00,47.5,38.9,30.33,WNW,292,0.9,0.9,72,0.00,,---,0.13,VWS V14.01,2013-04-11 02:42:00,
2013-04-10 19:47:00,47.5,39.3,30.33,WNW,292,0.0,0.0,73,0.00,,---,0.13,VWS V14.01,2013-04-11 02:47:00,
2013-04-10 19:52:00,47.3,39.1,30.36,West,270,2.5,2.5,73,0.00,,---,0.13,VWS V14.01,2013-04-11 02:52:00,
2013-04-10 19:57:00,47.1,38.9,30.36,West,270,0.0,0.0,73,0.00,,---,0.13,VWS V14.01,2013-04-11 02:57:00,
2013-04-10 20:02:00,47.1,38.9,30.36,WNW,292,1.6,1.6,73,0.00,,---,0.13,VWS V14.01,2013-04-11 03:02:00,
2013-04-10 20:08:00,46.9,38.8,30.33,West,270,0.9,0.9,73,0.00,,---,0.13,VWS V14.01,2013-04-11 03:08:00,
2013-04-10 20:13:00,46.9,38.8,30.33,West,270,0.0,0.0,73,0.00,,---,0.13,VWS V14.01,2013-04-11 03:13:00,
2013-04-10 20:18:00,46.8,38.6,30.33,West,270,0.0,1.1,73,0.00,,---,0.13,VWS V14.01,2013-04-11 03:18:00,
2013-04-10 20:23:00,46.8,38.6,30.30,SSE,158,0.0,0.9,73,0.00,,---,0.13,VWS V14.01,2013-04-11 03:23:00,
2013-04-10 20:28:00,46.8,38.9,30.30,WSW,248,0.0,0.0,74,0.00,,---,0.13,VWS V14.01,2013-04-11 03:28:00,
2013-04-10 20:33:00,46.8,38.9,30.30,West,270,0.0,0.0,74,0.00,,---,0.13,VWS V14.01,2013-04-11 03:33:00,
2013-04-10 20:38:00,46.6,38.8,30.33,West,270,1.6,2.2,74,0.00,,---,0.13,VWS V14.01,2013-04-11 03:38:00,
2013-04-10 20:43:00,46.4,38.6,30.33,West,270,0.0,0.0,74,0.00,,---,0.13,VWS V14.01,2013-04-11 03:43:00,
2013-04-10 20:48:00,46.4,38.6,30.33,WNW,292,0.0,0.0,74,0.00,,---,0.13,VWS V14.01,2013-04-11 03:48:00,
2013-04-10 20:53:00,46.0,38.6,30.33,WNW,292,0.9,2.5,75,0.00,,---,0.13,VWS V14.01,2013-04-11 03:53:00,
2013-04-10 20:58:00,46.0,38.9,30.33,WNW,292,0.0,1.3,76,0.00,,---,0.13,VWS V14.01,2013-04-11 03:58:00,
2013-04-10 21:00:00,46.0,38.9,30.33,West,270,0.0,0.0,76,0.00,,---,0.13,VWS V14.01,2013-04-11 04:00:00,
2013-04-10 21:01:00,46.0,38.9,30.33,West,270,1.6,1.6,76,0.00,,---,0.13,VWS V14.01,2013-04-11 04:01:00,
2013-04-10 21:07:00,46.0,38.9,30.36,West,270,0.0,0.0,76,0.00,,---,0.13,VWS V14.01,2013-04-11 04:07:00,
2013-04-10 21:12:00,45.9,38.7,30.36,WNW,292,0.0,0.0,76,0.00,,---,0.13,VWS V14.01,2013-04-11 04:12:00,
2013-04-10 21:17:00,45.9,38.7,30.36,West,270,0.0,0.0,76,0.00,,---,0.13,VWS V14.01,2013-04-11 04:17:00,
2013-04-10 21:22:00,45.9,39.1,30.36,WNW,292,0.0,1.1,77,0.00,,---,0.13,VWS V14.01,2013-04-11 04:22:00,
2013-04-10 21:27:00,45.9,38.7,30.36,West,270,2.7,2.7,76,0.00,,---,0.13,VWS V14.01,2013-04-11 04:27:00,
2013-04-10 21:32:00,45.9,38.7,30.36,WNW,292,0.0,0.0,76,0.00,,---,0.13,VWS V14.01,2013-04-11 04:32:00,
2013-04-10 21:37:00,45.9,38.7,30.36,West,270,2.9,2.9,76,0.00,,---,0.13,VWS V14.01,2013-04-11 04:37:00,
2013-04-10 21:42:00,45.9,38.7,30.36,WNW,292,1.1,2.5,76,0.00,,---,0.13,VWS V14.01,2013-04-11 04:42:00,
2013-04-10 21:48:00,45.7,38.6,30.36,South,180,0.0,0.0,76,0.00,,---,0.13,VWS V14.01,2013-04-11 04:48:00,
2013-04-10 21:53:00,45.7,38.9,30.36,West,270,0.0,0.0,77,0.00,,---,0.13,VWS V14.01,2013-04-11 04:53:00,
2013-04-10 21:58:00,45.7,38.9,30.36,SSE,158,0.9,2.5,77,0.00,,---,0.13,VWS V14.01,2013-04-11 04:58:00,
2013-04-10 22:03:00,45.7,38.9,30.36,WNW,292,0.0,1.3,77,0.00,,---,0.13,VWS V14.01,2013-04-11 05:03:00,
2013-04-10 22:08:00,45.5,39.0,30.36,West,270,0.0,0.0,78,0.00,,---,0.13,VWS V14.01,2013-04-11 05:08:00,
2013-04-10 22:13:00,45.3,39.2,30.36,WNW,292,0.0,1.1,79,0.00,,---,0.13,VWS V14.01,2013-04-11 05:13:00,
2013-04-10 22:18:00,45.1,39.3,30.36,West,270,0.0,0.0,80,0.00,,---,0.13,VWS V14.01,2013-04-11 05:18:00,
2013-04-10 22:24:00,45.0,39.2,30.39,SSE,158,0.0,0.0,80,0.00,,---,0.13,VWS V14.01,2013-04-11 05:24:00,
2013-04-10 22:29:00,45.0,39.5,30.39,South,180,0.0,0.0,81,0.00,,---,0.13,VWS V14.01,2013-04-11 05:29:00,
2013-04-10 22:34:00,44.8,39.3,30.39,SE,135,0.0,0.0,81,0.00,,---,0.13,VWS V14.01,2013-04-11 05:34:00,
2013-04-10 22:39:00,44.8,39.6,30.39,South,180,0.0,0.0,82,0.00,,---,0.13,VWS V14.01,2013-04-11 05:39:00,
2013-04-10 22:44:00,44.8,39.6,30.39,West,270,0.0,0.0,82,0.00,,---,0.13,VWS V14.01,2013-04-11 05:44:00,
2013-04-10 22:49:00,44.6,39.8,30.39,West,270,0.0,0.0,83,0.00,,---,0.13,VWS V14.01,2013-04-11 05:49:00,
2013-04-10 22:55:00,44.4,39.9,30.39,West,270,0.0,0.0,84,0.00,,---,0.13,VWS V14.01,2013-04-11 05:55:00,
2013-04-10 23:00:00,44.2,39.7,30.39,West,270,0.0,0.0,84,0.00,,---,0.13,VWS V14.01,2013-04-11 06:00:00,
2013-04-10 23:05:00,44.1,39.8,30.39,South,180,0.0,0.0,85,0.00,,---,0.13,VWS V14.01,2013-04-11 06:05:00,
2013-04-10 23:10:00,43.9,39.7,30.39,NNE,22,0.0,0.0,85,0.00,,---,0.13,VWS V14.01,2013-04-11 06:10:00,
2013-04-10 23:15:00,43.7,39.5,30.39,North,0,0.0,0.0,85,0.00,,---,0.13,VWS V14.01,2013-04-11 06:15:00,
2013-04-10 23:20:00,43.5,39.3,30.39,North,0,0.0,0.0,85,0.00,,---,0.13,VWS V14.01,2013-04-11 06:20:00,
2013-04-10 23:25:00,43.5,39.3,30.39,North,0,0.0,0.0,85,0.00,,---,0.13,VWS V14.01,2013-04-11 06:25:00,
2013-04-10 23:30:00,43.3,39.4,30.39,West,270,0.0,0.0,86,0.00,,---,0.13,VWS V14.01,2013-04-11 06:30:00,
2013-04-10 23:35:00,43.3,39.4,30.39,West,270,0.0,0.0,86,0.00,,---,0.13,VWS V14.01,2013-04-11 06:35:00,
2013-04-10 23:41:00,43.0,39.1,30.39,West,270,0.0,0.0,86,0.00,,---,0.13,VWS V14.01,2013-04-11 06:41:00,
2013-04-10 23:46:00,42.8,38.9,30.39,West,270,0.0,0.0,86,0.00,,---,0.13,VWS V14.01,2013-04-11 06:46:00,
2013-04-10 23:51:00,42.4,38.6,30.39,West,270,0.0,0.0,86,0.00,,---,0.13,VWS V14.01,2013-04-11 06:51:00,
2013-04-10 23:56:00,42.1,38.2,30.39,West,270,0.0,0.0,86,0.00,,---,0.13,VWS V14.01,2013-04-11 06:56:00,